CZ-6A DEB, 61360

Orbit data source: Space-Track

CZ-6A DEB, 61360 is space debris in LEO originally from a launch on Tue, 06 Aug 2024 UTC launched from the Taiyaun Space Center, China (TSC). Debris objects in space refer to the collection of defunct objects orbiting the Earth. Examples of debris include non-operational satellites, rocket bodies, and fragments generated from explosions, collisions, or faulty payload assembly.

Loading next visibility...
Identifier
61360, 2024-140VZ
Orbit
LEO
Country
Flag of CNCN / PRC
Related business
Manufacturer
SAST
Mission
Spacecraft
Bus & Motor
Unknown
Mass
Unknown
Launch date (UTC)
2024-08-06 (2 years ago)
Launch vehicle
Unknown
Launch site
Taiyaun Space Center, China (TSC)
Object type
Payload
Rocket body
Debris
Shape & HBR
Unknown shape, 0.1 m
Radar Cross Section
Small (<0.1 m²)

Expand to show TLE details & history
Last TLE update: 16 hours ago

TLE from 16 hours ago
0 CZ-6A DEB
1 61360U 24140VZ  26171.31246247  .00000746  00000-0  34186-3 0  9995
2 61360  89.0164 275.6894 0050448 178.0380 182.1017 14.19695256 92857
Epoch: 2026-06-20T07:29Z
TLE epoch observation values (Epoch: 2026-06-20T07:29:56.757Z)
Latitude
-0.00008°
Longitude
-105.32598°
Altitude
865.765 km
Speed
7.401 km/s
True Right ascension
18h 22m 45s
True Declination
0° 00' 00"
Sunlit
Object was in full shadow at epoch
Visualization orbit readout
Latitude
Unknown
Longitude
Unknown
Altitude
Unknown
Speed
Unknown
Apparent Right ascension
Unknown
Apparent Declination
Unknown
Sunlit
N/A
Visualization observer readout
Local Sidereal Time
10:18:07
Azimuth
Unknown
Elevation
Unknown
Doppler factor
Unknown
Orbital elements
Apogee altitude
859.665 km
Perigee altitude
787.005 km
Semi-major axis
7,201.472 km
Eccentricity
0.00504
Inclination
89.0164°
RAAN
275.6894°
Arg. of periapsis
178.038°
True anomaly
182.08063°
Mean anomaly
182.1017°
Eccentric anomaly
182.09115°
Mean motion
3.5515 °/min
Orbital period
101.37 mins
BSTAR
0.00034186
Loading maneuver chart data...
Computing Atmospheric mass density...
Loading historical data...
Loading historical data...
Loading historical data...
Loading historical data...
Loading historical data...
Loading historical data...
Loading historical data...

Documentation

Showing up to 5 results
|